Новоэкономическое

Украина / Донецкая область     48°19′40″N   37°19′55″E
В апреле 2022 года жителям России запретили посещать сайт meteo.paraplan.net по решению Генеральной прокуратуры. Аудитория сайта уменьшилась в 10 раз. Владельцы сайта не видят смысла в поддержке погодного сервера в таких условиях. Сайт будет закрыт в октябре.
темп.,
°C
ветер,
м/с
пор.,
м/с
влажн.,
%
обл.,
%
осадки,
мм/ч
давл.,
гПа
погр.,
м
4 октября, вт
вт400:00+10ю41068100 0.0 1012197
03:00+11ю4107393 0.1 1012216
06:00+13ююв6127968 0.6 1012443
09:00+14ююз696819 0.6 1013814
12:00+17юз685464 0.1 10131597
15:00+17юз694465 0.3 10141979
18:00+15з595196 0.0 1016383
21:00+11сз59641 0.0 1018299
5 октября, ср
ср500:00+9з35720 0.0 1020120
03:00+8зюз34740 0.0 102173
06:00+7юз37755 0.0 1022149
09:00+11зюз47622 0.0 1022500
12:00+15з685023 0.0 10231451
15:00+16з684566 0.0 10231961
18:00+13з335440 0.0 102332
21:00+12зсз3759100 0.0 1025265
6 октября, чт
чт600:00+10сз34725 0.0 102573
03:00+9зсз227721 0.0 102615
06:00+9зсз2278100 0.0 102615
09:00+12з2366100 0.0 1026297
12:00+16зсз335176 0.0 10251042
15:00+17зсз454585 0.0 10241461
18:00+15зсз22535 0.0 102514
21:00+13зюз22595 0.0 102511
7 октября, пт
пт700:00+12зюз33645 0.0 102632
03:00+11зюз22695 0.0 102625
06:00+10зюз22725 0.0 102624
09:00+14з23548 0.0 1025214
12:00+19зсз334152 0.0 1025956
15:00+20ссз333914 0.0 10241397
18:00+16ссв335357 0.0 102432
21:00+14св366575 0.0 102591
8 октября, сб
сб800:00+12св477599 0.0 1025137
03:00+12всв4879100 0.0 1025158
06:00+11всв4881100 0.0 1024152
09:00+15всв5862100 0.0 1024345
12:00+18в5744100 0.0 10231059
15:00+20в6740100 0.0 10211410
18:00+16всв4852100 0.0 1021135
21:00+14всв485998 0.0 1020151